DW6860 Weather Reports


Display with metric or nautical units.
time (UTC)temp
F
wind
direction
speed
MPH
gust
MPH
rain 1hr
in
rain 24hr
in
rain mn
in
humidity
%
barometer
mb
20260831032340 62 189 4.0 8.0 0.00 0.02 0.00 87 1008.1
20260831031844 62 221 4.0 8.0 0.00 0.02 0.00 87 1008.1
20260831031342 62 207 4.0 11.0 0.00 0.02 0.00 87 1008.2
20260831030841 62 196 4.0 11.0 0.00 0.02 0.00 87 1008.2
20260831030338 62 205 3.0 8.0 0.00 0.02 0.00 87 1008.3
20260831025837 62 171 3.0 8.0 0.00 0.02 0.00 87 1008.4
20260831025334 62 230 3.0 7.0 0.00 0.02 0.00 87 1008.3
20260831024836 62 193 3.0 9.0 0.00 0.02 0.00 87 1008.3
20260831024333 62 190 4.0 9.0 0.00 0.02 0.00 87 1008.3
20260831023835 62 233 4.0 9.0 0.00 0.02 0.00 87 1008.2
20260831023335 62 203 4.0 9.0 0.00 0.02 0.00 87 1008.2
20260831022839 62 244 4.0 9.0 0.00 0.02 0.00 87 1008.2
20260831022338 63 202 3.0 9.0 0.00 0.02 0.00 88 1008.3
20260831021834 63 220 4.0 8.0 0.00 0.02 0.00 88 1008.3
20260831021332 63 202 4.0 11.0 0.00 0.02 0.00 88 1008.3
20260831020836 63 215 4.0 11.0 0.00 0.02 0.00 88 1008.2
20260831020332 63 196 4.0 9.0 0.00 0.02 0.00 88 1008.2
20260831020215 63 200 4.0 9.0 0.00 0.02 0.00 88 1008.1
20260831015330 63 219 4.0 8.0 0.00 0.02 0.00 88 1008.0
20260831014831 63 213 3.0 7.0 0.00 0.02 0.00 88 1008.1
20260831014331 62 223 3.0 7.0 0.00 0.02 0.00 88 1008.2
20260831013831 62 223 3.0 7.0 0.00 0.02 0.00 88 1008.2
20260831013332 62 222 3.0 7.0 0.00 0.02 0.00 88 1008.2
20260831012831 62 178 3.0 9.0 0.00 0.02 0.00 88 1008.1
20260831012653 62 202 3.0 9.0 0.00 0.02 0.00 88 1008.2
20260831011831 62 188 3.0 8.0 0.00 0.02 0.00 88 1008.3
20260831011333 62 209 3.0 8.0 0.00 0.02 0.00 87 1008.4
20260831010830 62 195 2.0 6.0 0.00 0.02 0.00 87 1008.4
20260831010333 62 190 2.0 6.0 0.00 0.02 0.00 87 1008.5
20260831005830 63 212 2.0 6.0 0.00 0.02 0.00 87 1008.4
20260831005332 63 172 1.0 6.0 0.00 0.02 0.00 87 1008.5
20260831004830 63 177 1.0 3.0 0.00 0.02 0.00 87 1008.4
20260831004329 63 197 1.0 4.0 0.00 0.02 0.00 86 1008.5
20260831003827 63 197 1.0 4.0 0.00 0.02 0.00 86 1008.6
20260831003325 63 196 1.0 3.0 0.00 0.02 0.00 86 1008.6
20260831002825 63 197 0.0 3.0 0.00 0.02 0.00 86 1008.5
20260831002319 63 197 0.0 2.0 0.00 0.02 0.00 86 1008.6
20260831001821 63 197 0.0 3.0 0.00 0.02 0.00 86 1008.6
20260831001638 63 196 0.0 3.0 0.00 0.02 0.00 86 1008.6
20260831000811 63 197 1.0 4.0 0.00 0.02 0.00 86 1008.6
20260831000314 63 197 1.0 4.0 0.00 0.02 0.00 86 1008.8
20260830235811 63 225 2.0 5.0 0.00 0.02 0.00 86 1008.8
20260830235625 63 184 1.0 5.0 0.00 0.02 0.00 86 1008.8
20260830234822 63 219 1.0 4.0 0.00 0.02 0.00 86 1008.9
20260830234316 63 230 1.0 7.0 0.00 0.02 0.00 86 1008.9
20260830233812 63 176 2.0 7.0 0.00 0.02 0.00 86 1008.8
20260830233314 63 196 2.0 6.0 0.00 0.02 0.00 86 1008.7
20260830232813 63 173 2.0 6.0 0.00 0.02 0.00 87 1008.8
20260830232638 63 191 2.0 6.0 0.00 0.02 0.00 87 1009.0
20260830231814 63 200 2.0 6.0 0.00 0.02 0.00 86 1008.8
20260830231313 63 206 2.0 5.0 0.00 0.02 0.00 86 1008.8
20260830230801 63 196 2.0 5.0 0.00 0.02 0.00 86 1008.9
20260830230310 63 196 2.0 5.0 0.00 0.02 0.00 86 1008.9
20260830225754 63 186 2.0 6.0 0.00 0.02 0.00 86 1009.0
20260830225252 63 217 2.0 6.0 0.00 0.02 0.00 86 1008.9
20260830224748 63 173 2.0 6.0 0.00 0.02 0.00 86 1008.9
20260830224248 63 205 2.0 5.0 0.00 0.02 0.00 85 1008.9
20260830223745 63 187 1.0 5.0 0.00 0.02 0.00 85 1008.9
20260830223245 63 182 1.0 5.0 0.00 0.02 0.00 85 1009.0
20260830222745 63 171 1.0 4.0 0.00 0.02 0.00 84 1009.1
20260830222243 64 171 1.0 4.0 0.00 0.02 0.00 84 1009.1
20260830221739 64 171 1.0 4.0 0.00 0.02 0.00 84 1009.1
20260830221236 64 171 1.0 4.0 0.00 0.02 0.00 84 1009.2
20260830220741 64 171 0.0 4.0 0.00 0.02 0.00 84 1009.2
20260830220237 64 171 1.0 4.0 0.00 0.02 0.00 83 1009.2
20260830215734 64 171 1.0 5.0 0.00 0.02 0.02 83 1009.2
20260830215548 64 171 1.0 5.0 0.00 0.02 0.02 83 1009.3
20260830214731 64 180 1.0 4.0 0.00 0.02 0.02 83 1009.3
20260830214612 65 180 1.0 4.0 0.00 0.02 0.02 83 1009.4
20260830213732 65 180 1.0 3.0 0.00 0.02 0.02 82 1009.4
20260830213227 65 180 1.0 5.0 0.00 0.02 0.02 82 1009.5
20260830212714 65 248 1.0 5.0 0.00 0.02 0.02 82 1009.6
20260830212534 65 184 1.0 4.0 0.00 0.02 0.02 82 1009.5
20260830211913 65 184 2.0 7.0 0.00 0.02 0.02 82 1009.5
20260830211823 65 184 1.0 4.0 0.00 0.02 0.02 82 1009.6
20260830210710 65 184 2.0 7.0 0.00 0.02 0.02 81 1009.5
20260830210211 65 157 2.0 6.0 0.00 0.02 0.02 81 1009.6
20260830205708 65 180 3.0 7.0 0.00 0.02 0.02 81 1009.7
20260830205207 66 194 2.0 7.0 0.00 0.02 0.02 81 1009.7
20260830205041 66 221 3.0 7.0 0.00 0.02 0.02 80 1009.7
20260830204538 66 178 3.0 8.0 0.00 0.02 0.02 80 1009.8
20260830203700 66 187 4.0 8.0 0.00 0.02 0.02 80 1009.7
20260830203202 66 206 3.0 7.0 0.00 0.02 0.02 80 1009.7
20260830203036 66 182 3.0 8.0 0.00 0.02 0.02 79 1009.7
20260830202534 67 221 3.0 8.0 0.00 0.03 0.02 79 1009.7
20260830201705 67 153 3.0 9.0 0.00 0.03 0.02 78 1009.6
20260830201200 67 180 4.0 10.0 0.00 0.03 0.02 78 1009.7
20260830200702 67 180 4.0 10.0 0.00 0.03 0.02 78 1009.6
20260830200530 67 190 3.0 8.0 0.00 0.03 0.02 77 1009.8
20260830195701 67 214 4.0 10.0 0.00 0.03 0.02 76 1009.8
20260830195201 67 166 4.0 10.0 0.00 0.04 0.02 76 1009.8
20260830194704 67 192 4.0 9.0 0.00 0.04 0.02 76 1009.9
20260830194203 67 215 3.0 9.0 0.00 0.04 0.02 75 1010.1
20260830193702 67 203 4.0 12.0 0.00 0.04 0.02 75 1010.0
20260830193201 68 163 3.0 12.0 0.00 0.04 0.02 74 1009.9
20260830193050 68 169 0.0 4.0 0.00 0.04 0.02 74 1010.0
20260830192201 68 169 0.0 1.0 0.00 0.04 0.02 74 1010.1
20260830191704 68 169 0.0 2.0 0.00 0.04 0.02 74 1010.1
20260830191539 68 169 1.0 2.0 0.00 0.04 0.02 74 1010.1
20260830190712 68 169 1.0 2.0 0.00 0.04 0.02 73 1010.2
20260830190533 68 169 1.0 4.0 0.00 0.04 0.02 73 1010.1
20260830190047 69 169 0.0 4.0 0.00 0.04 0.02 73 1010.2
20260830185202 69 169 1.0 4.0 0.00 0.04 0.02 73 1010.1
20260830184703 69 169 1.0 4.0 0.00 0.04 0.02 73 1010.1
20260830184209 69 169 1.0 4.0 0.00 0.04 0.02 72 1010.1
20260830183703 69 169 1.0 4.0 0.00 0.04 0.02 72 1010.1
20260830183207 69 169 1.0 2.0 0.00 0.04 0.02 71 1010.1
20260830182716 69 169 1.0 2.0 0.00 0.04 0.02 71 1010.1
20260830182208 69 169 1.0 5.0 0.00 0.04 0.02 71 1010.2
20260830181656 69 169 2.0 6.0 0.00 0.04 0.02 71 1010.2
20260830181154 70 169 2.0 6.0 0.00 0.04 0.02 70 1010.2
20260830180653 70 169 2.0 6.0 0.00 0.04 0.02 70 1010.3
20260830180154 70 200 2.0 5.0 0.00 0.04 0.02 70 1010.3
20260830175657 70 186 2.0 6.0 0.00 0.04 0.02 70 1010.3
20260830175154 70 186 2.0 6.0 0.00 0.04 0.02 69 1010.2
20260830174656 70 201 2.0 5.0 0.00 0.04 0.02 69 1010.2
20260830174153 71 224 2.0 5.0 0.00 0.05 0.02 69 1010.3
20260830173654 71 232 2.0 5.0 0.00 0.05 0.02 69 1010.3
20260830173152 71 204 2.0 4.0 0.00 0.05 0.02 69 1010.5
20260830172649 71 196 2.0 4.0 0.00 0.05 0.02 69 1010.5
20260830172537 71 207 2.0 4.0 0.00 0.05 0.02 68 1010.5
20260830172043 71 207 3.0 8.0 0.00 0.05 0.02 68 1010.6
20260830171146 71 184 3.0 8.0 0.00 0.05 0.02 68 1010.5
20260830170645 71 197 2.0 5.0 0.00 0.05 0.02 68 1010.5
20260830170146 71 238 2.0 6.0 0.00 0.06 0.02 68 1010.5
20260830165643 71 168 3.0 6.0 0.00 0.06 0.02 68 1010.5
20260830165148 71 173 3.0 7.0 0.00 0.06 0.02 68 1010.5
20260830164646 71 206 3.0 11.0 0.00 0.07 0.02 68 1010.5
20260830164538 71 191 4.0 11.0 0.00 0.08 0.02 68 1010.6
20260830163641 71 224 3.0 6.0 0.00 0.09 0.02 69 1010.6
20260830163141 71 204 3.0 6.0 0.00 0.11 0.02 70 1010.6
20260830162639 71 171 4.0 8.0 0.00 0.14 0.02 70 1010.6
20260830162139 71 190 4.0 9.0 0.00 0.15 0.02 70 1010.7
20260830161640 71 226 4.0 9.0 0.00 0.16 0.02 70 1010.7
20260830161139 71 209 3.0 8.0 0.00 0.16 0.02 71 1010.7
20260830160859 71 185 4.0 8.0 0.00 0.16 0.02 72 1010.8
20260830160804 71 185 3.0 8.0 0.00 0.16 0.02 71 1010.7
20260830155635 71 223 3.0 8.0 0.00 0.16 0.02 72 1010.9
20260830155133 71 223 3.0 6.0 0.00 0.16 0.02 72 1011.0
20260830154637 71 173 3.0 7.0 0.00 0.16 0.02 72 1010.8
20260830154459 71 156 3.0 7.0 0.00 0.16 0.02 72 1010.8
20260830153845 71 186 4.0 9.0 0.00 0.16 0.02 71 1011.0
20260830153753 71 198 3.0 8.0 0.00 0.16 0.02 72 1010.9
20260830152630 72 212 4.0 9.0 0.00 0.16 0.02 70 1011.0
20260830152129 72 176 5.0 14.0 0.00 0.16 0.02 70 1011.0
20260830151957 72 167 5.0 14.0 0.00 0.16 0.02 71 1011.0
20260830151346 73 229 4.0 9.0 0.00 0.16 0.02 70 1011.1
20260830151257 73 165 4.0 9.0 0.00 0.16 0.02 71 1011.1
20260830150500 73 198 4.0 9.0 0.00 0.16 0.02 69 1011.1
20260830145625 73 232 4.0 11.0 0.00 0.16 0.02 69 1011.1
20260830145125 73 219 4.0 12.0 0.00 0.16 0.02 69 1011.2
20260830144625 73 211 4.0 12.0 0.00 0.16 0.02 70 1011.2
20260830144126 73 205 4.0 10.0 0.00 0.16 0.02 69 1011.2
20260830143625 73 213 3.0 9.0 0.00 0.16 0.02 70 1011.1
20260830143126 73 223 3.0 9.0 0.00 0.16 0.02 70 1011.1
20260830142626 73 299 3.0 9.0 0.00 0.16 0.02 70 1011.2
20260830142124 73 0 4.0 11.0 0.00 0.16 0.02 71 1011.1
20260830142026 72 319 5.0 12.0 0.00 0.16 0.02 71 1011.3
20260830141119 71 189 5.0 12.0 0.00 0.16 0.02 71 1011.3
20260830140621 71 190 4.0 11.0 0.00 0.16 0.02 72 1011.3
20260830140416 71 285 5.0 13.0 0.00 0.17 0.02 73 1011.4
20260830140258 71 213 4.0 10.0 0.00 0.16 0.02 73 1011.4
20260830135813 71 206 5.0 13.0 0.00 0.17 0.02 73 1011.4
20260830134617 71 204 5.0 11.0 0.00 0.17 0.02 73 1011.4
20260830134115 71 238 5.0 11.0 0.00 0.17 0.02 73 1011.5
20260830133616 71 331 5.0 10.0 0.00 0.17 0.02 73 1011.4
20260830133116 71 161 5.0 12.0 0.00 0.17 0.02 74 1011.5
20260830133037 71 199 5.0 12.0 0.00 0.17 0.02 75 1011.4
20260830132121 71 123 5.0 11.0 0.00 0.17 0.02 76 1011.4
20260830131623 71 202 5.0 11.0 0.00 0.17 0.02 75 1011.2
20260830131116 70 199 4.0 12.0 0.00 0.17 0.02 76 1011.3
20260830130618 70 207 4.0 12.0 0.00 0.17 0.02 77 1011.4
20260830130112 70 270 4.0 11.0 0.00 0.17 0.02 77 1011.4
20260830125619 70 200 5.0 11.0 0.00 0.17 0.02 77 1011.4
20260830125445 70 266 6.0 11.0 0.00 0.17 0.02 77 1011.4
20260830124611 70 184 7.0 13.0 0.00 0.17 0.02 76 1011.4
20260830124443 70 13 7.0 13.0 0.00 0.17 0.02 76 1011.4
20260830123614 71 222 6.0 13.0 0.00 0.17 0.02 75 1011.3
20260830123112 71 225 5.0 11.0 0.00 0.17 0.02 76 1011.3
20260830123001 71 248 6.0 14.0 0.00 0.17 0.02 76 1011.2
20260830122107 71 271 6.0 14.0 0.00 0.17 0.02 76 1011.2
20260830122026 71 211 6.0 12.0 0.00 0.17 0.02 77 1011.3
20260830121338 71 242 5.0 10.0 0.00 0.17 0.02 75 1011.0
20260830121331 71 225 5.0 14.0 0.00 0.17 0.02 75 1011.1
20260830121229 70 236 5.0 14.0 0.00 0.17 0.02 76 1011.3
20260830115609 71 219 5.0 10.0 0.00 0.17 0.02 76 1011.0
20260830115108 70 232 6.0 12.0 0.00 0.17 0.02 77 1011.0
20260830114610 70 211 6.0 12.0 0.00 0.17 0.02 77 1010.9
20260830114105 70 150 6.0 15.0 0.00 0.17 0.02 76 1010.9
20260830113611 70 182 6.0 15.0 0.00 0.17 0.02 76 1010.9
20260830113107 70 226 6.0 15.0 0.00 0.17 0.02 77 1010.9
20260830112954 70 199 6.0 14.0 0.00 0.17 0.02 76 1010.8
20260830112112 70 242 7.0 15.0 0.00 0.17 0.02 76 1010.8
20260830111613 70 201 5.0 15.0 0.00 0.17 0.02 76 1010.8
20260830111119 71 200 4.0 9.0 0.00 0.17 0.02 76 1010.7
20260830110616 71 244 5.0 10.0 0.00 0.17 0.02 76 1010.6
20260830110109 70 269 5.0 10.0 0.00 0.17 0.02 78 1010.6
20260830110000 69 239 5.0 10.0 0.00 0.17 0.02 79 1010.7
20260830105111 68 209 5.0 10.0 0.00 0.17 0.02 80 1010.7
20260830104605 68 217 6.0 11.0 0.00 0.17 0.02 80 1010.7
20260830104104 68 211 6.0 19.0 0.00 0.17 0.02 80 1010.7
20260830103608 68 192 7.0 19.0 0.00 0.17 0.02 80 1010.7
20260830103108 68 209 8.0 20.0 0.00 0.17 0.02 79 1010.6
20260830102928 68 232 7.0 20.0 0.00 0.17 0.02 79 1010.7
20260830102435 69 223 7.0 17.0 0.00 0.17 0.02 79 1010.6
20260830101631 68 260 5.0 16.0 0.00 0.17 0.02 80 1010.5
20260830101613 69 254 8.0 17.0 0.00 0.17 0.02 78 1010.5
20260830101211 68 190 6.0 17.0 0.00 0.17 0.02 78 1010.4
20260830100055 68 316 6.0 16.0 0.00 0.17 0.02 80 1010.4
20260830095554 68 217 6.0 15.0 0.00 0.17 0.02 81 1010.4
20260830095053 68 221 5.0 11.0 0.00 0.17 0.02 82 1010.3
20260830094552 68 234 6.0 12.0 0.00 0.17 0.02 82 1010.3
20260830094050 68 231 6.0 12.0 0.00 0.17 0.02 83 1010.2
20260830093902 68 192 6.0 14.0 0.00 0.17 0.02 83 1010.3
20260830093050 68 213 6.0 14.0 0.00 0.17 0.02 84 1010.3
20260830092548 67 178 6.0 13.0 0.00 0.17 0.02 86 1010.1
20260830092052 67 220 6.0 13.0 0.00 0.17 0.02 87 1010.2
20260830091919 66 200 6.0 13.0 0.00 0.17 0.02 89 1010.1
20260830091234 64 195 5.0 13.0 0.00 0.17 0.02 92 1009.9
20260830091142 65 194 6.0 12.0 0.00 0.17 0.02 90 1010.1
20260830090821 64 241 5.0 12.0 0.00 0.17 0.02 92 1009.9
20260830090720 65 195 6.0 12.0 0.00 0.17 0.02 92 1010.1
20260830090518 64 195 5.0 12.0 0.00 0.17 0.02 92 1009.9
20260830090308 64 202 6.0 13.0 0.00 0.17 0.02 92 1010.0
20260830084034 64 236 6.0 12.0 0.00 0.17 0.02 92 1009.8
20260830083533 64 188 6.0 11.0 0.00 0.17 0.02 92 1009.8
20260830083030 64 206 6.0 12.0 0.00 0.17 0.02 92 1009.8
20260830082532 63 192 6.0 12.0 0.00 0.17 0.02 92 1009.8
20260830082029 63 215 6.0 12.0 0.00 0.17 0.02 92 1009.6
20260830081533 63 161 6.0 13.0 0.00 0.17 0.02 92 1009.7
20260830081028 63 213 7.0 13.0 0.00 0.17 0.02 92 1009.5
20260830080844 63 220 6.0 11.0 0.01 0.17 0.02 92 1009.6
20260830080358 63 216 5.0 12.0 0.01 0.17 0.02 92 1009.6
20260830075726 63 205 5.0 14.0 0.01 0.17 0.02 92 1009.4
20260830075643 63 234 5.0 12.0 0.01 0.17 0.02 92 1009.5
20260830074526 63 207 7.0 14.0 0.01 0.17 0.02 92 1009.3
20260830074026 63 202 7.0 13.0 0.01 0.17 0.02 92 1009.3
20260830073528 63 198 7.0 14.0 0.01 0.17 0.02 92 1009.1
20260830073024 63 230 7.0 14.0 0.01 0.17 0.02 92 1009.0
20260830072522 63 185 6.0 12.0 0.01 0.17 0.02 92 1008.9
20260830072022 63 209 7.0 13.0 0.01 0.17 0.02 92 1008.8
20260830071523 62 231 6.0 14.0 0.01 0.17 0.02 92 1008.8
20260830071024 62 213 5.0 14.0 0.01 0.17 0.01 92 1008.8
20260830070522 62 188 6.0 14.0 0.00 0.16 0.01 92 1008.7
20260830070031 62 217 6.0 14.0 0.00 0.16 0.01 92 1008.7
20260830065518 62 210 6.0 15.0 0.00 0.16 0.01 92 1008.7
20260830065022 62 197 6.0 15.0 0.00 0.16 0.01 91 1008.6
20260830064518 62 212 5.0 14.0 0.00 0.16 0.01 91 1008.6
20260830064024 62 213 6.0 14.0 0.00 0.16 0.01 91 1008.5
20260830063832 62 221 5.0 13.0 0.00 0.16 0.01 91 1008.5
20260830063022 62 182 5.0 13.0 0.00 0.16 0.01 91 1008.5
20260830062722 62 201 6.0 12.0 0.00 0.16 0.01 91 1008.2
20260830062635 62 192 6.0 13.0 0.00 0.16 0.01 91 1008.4
20260830061821 62 213 6.0 12.0 0.00 0.16 0.01 91 1008.2
20260830061330 62 213 6.0 12.0 0.00 0.16 0.01 91 1008.2
20260830060518 62 257 5.0 14.0 0.00 0.16 0.01 91 1008.1
20260830060026 62 237 6.0 15.0 0.00 0.16 0.01 91 1007.9
20260830055518 62 211 7.0 17.0 0.00 0.16 0.01 91 1007.9
20260830055338 62 215 7.0 17.0 0.00 0.16 0.01 91 1007.9
20260830054517 62 205 6.0 15.0 0.00 0.16 0.01 91 1007.9
20260830054019 62 232 6.0 12.0 0.00 0.16 0.01 91 1007.8
20260830053845 62 224 6.0 11.0 0.00 0.16 0.01 91 1007.8
20260830053017 62 207 6.0 11.0 0.00 0.16 0.01 91 1007.7
20260830052516 62 240 6.0 13.0 0.00 0.16 0.01 91 1007.8
20260830052019 62 200 6.0 13.0 0.00 0.16 0.01 91 1007.7
20260830051514 62 202 5.0 14.0 0.01 0.16 0.01 91 1007.6
20260830051014 62 219 6.0 14.0 0.01 0.16 0.01 91 1007.5
20260830050832 62 243 6.0 14.0 0.01 0.16 0.01 91 1007.4
20260830050001 62 210 6.0 14.0 0.01 0.16 0.01 91 1007.4
20260830045503 62 171 6.0 11.0 0.01 0.16 0.01 91 1007.3
20260830045206 62 212 6.0 19.0 0.01 0.16 0.01 90 1007.2
20260830045111 62 200 6.0 12.0 0.01 0.16 0.01 90 1007.2
20260830043957 62 208 6.0 19.0 0.01 0.16 0.01 90 1007.2
20260830043457 62 234 6.0 12.0 0.01 0.16 0.01 90 1007.1
20260830042957 63 173 7.0 16.0 0.01 0.16 0.01 89 1007.2
20260830042457 63 228 7.0 16.0 0.01 0.16 0.01 89 1007.1
20260830041955 63 215 7.0 16.0 0.01 0.16 0.01 89 1007.1
20260830041455 63 197 7.0 16.0 0.00 0.15 0.00 88 1007.0
20260830040955 63 232 7.0 15.0 0.00 0.15 0.00 87 1007.0
20260830040452 64 201 6.0 14.0 0.00 0.15 0.00 87 1007.0
20260830035955 64 200 6.0 13.0 0.00 0.15 0.00 87 1007.1
20260830035453 64 193 7.0 16.0 0.00 0.15 0.00 86 1007.0
20260830034951 64 186 8.0 20.0 0.00 0.15 0.00 86 1007.0
20260830034449 64 197 8.0 20.0 0.00 0.15 0.00 86 1007.0
20260830034323 64 240 8.0 15.0 0.00 0.15 0.00 85 1006.9
20260830033813 64 215 8.0 16.0 0.00 0.15 0.00 86 1006.8
20260830033321 64 241 8.0 18.0 0.00 0.15 0.00 86 1006.8
20260830032816 64 197 8.0 18.0 0.00 0.15 0.00 86 1006.7